Terminal Aerodrome Forecast
Issued by NWS Chicago, IL

Home | Current Version | Previous Version | Graphics & Text | Print | Product List | Glossary On
Versions: 1 2 3 4 5 6 7 8 9 10 11 12 13 14 15 16 17 18 19 20 21 22 23 24 25 26 27 28 29 30 31
000
FTUS43 KLOT 202300
TAFRFD
TAF
KRFD 202337Z 2100/2124 01010KT P6SM BKN050
     FM210500 35006KT P6SM SCT025 BKN035
     FM211300 02011G17KT P6SM FEW015 SCT025
     FM211800 03010KT P6SM SCT030=

USA.gov is the U.S. government's official web portal to all federal, state and local government web resources and services.